Location: Boiro
(42.6475°N, 8.8834°W)
Time: 00:01:26
(UTC+01:00)

A-11 Canister half - Pass Details

Date: 06 December 2021
Orbit: 1516 x 1684 km, 47.2° (Epoch: 18 January)

Event Time Altitude Azimuth Distance (km) Brightness Sun altitude
Rises 05:22:40 0° 179° (S) 4,693 11.5 -37.5°
Reaches altitude 10° 05:27:05 10° 161° (SSE) 3,742 11.2 -36.7°
Maximum altitude 05:32:39 17° 124° (SE) 3,239 11.1 -35.7°
Drops below altitude 10° 05:38:18 10° 87° (E) 3,831 11.9 -34.6°
Sets 05:42:52 0° 70° (ENE) 4,854 12.5 -33.8°
